Joplin, MO

6:34 PM CST on January 24, 2017 (GMT -0600)
Joplin Regional

Weather History for KJLN - October, 2012

Change the Weather History Date:

Saturday, October 13, 2012

  Actual Average Record
Temperature  
Mean Temperature 68 °F 61 °F  
Max Temperature 76 °F 72 °F 88 °F (1952)
Min Temperature 60 °F 49 °F 35 °F (1977)
Degree Days  
Heating Degree Days 0 6  
Month to date heating degree days 123 64  
Since 1 July heating degree days 147 106  
Cooling Degree Days 3 2  
Month to date cooling degree days 6 31  
Year to date cooling degree days 2067 1673  
Growing Degree Days 18 (Base 50)    
Moisture  
Dew Point 63 °F    
Average Humidity 85    
Maximum Humidity 100    
Minimum Humidity 69    
Precipitation  
Precipitation 1.38 in 0.13 in 2.54 in (1959)
Month to date precipitation 3.77 1.71  
Year to date precipitation 34.79 37.63  
Snow  
Snow 0.00 in - - ()
Month to date snowfall 0.0  
Snow Depth 0.00 in    
Sea Level Pressure  
Sea Level Pressure 29.85 in    
Wind  
Wind Speed 15 mph (South)    
Max Wind Speed 30 mph    
Max Gust Speed 39 mph    
Visibility 7 miles    
Events Rain , Thunderstorm    
T = Trace of Precipitation, MM = Missing Value Source: NWS Daily Summary

Daily Weather History Graph

Daily Weather History Graph

Search for Another Location

Airport or City:

Trip Planner

Search our weather history database for the weather conditions in past years. The results will help you decide how hot, cold, wet, or windy it might be!

Date:

Astronomy

Oct. 13, 2012 Rise Set
Actual Time 7:24 AM CDT 6:43 PM CDT
Civil Twilight 6:58 AM CDT 7:09 PM CDT
Nautical Twilight 6:28 AM CDT 7:39 PM CDT
Astronomical Twilight 5:57 AM CDT 8:09 PM CDT
Moon 5:17 AM CDT (10/13) 5:26 PM CDT (10/13)
Length of Visible Light 12h 11m
Length of Day
11h 18m
Waning Crescent, 5% of the Moon is Illuminated
Oct 13
Waning Crescent
Oct 15
New
Oct 21
First Quarter
Oct 29
Full
Nov 6
Last Quarter

Hourly Weather History & Observations

Time (CDT) Temp. Dew Point Humidity Pressure Visibility Wind Dir Wind Speed Gust Speed Precip Events Conditions
12:53 AM 60.1 °F 59.0 °F 96% 30.08 in 10.0 mi ESE 5.8 mph - N/A   Clear
1:53 AM 60.8 °F 60.8 °F 100% 30.07 in 10.0 mi SE 8.1 mph - N/A   Clear
2:53 AM 62.1 °F 60.1 °F 93% 30.04 in 9.0 mi SE 6.9 mph - N/A   Clear
3:53 AM 62.1 °F 60.1 °F 93% 30.03 in 7.0 mi SSE 9.2 mph - N/A   Clear
4:53 AM 63.0 °F 61.0 °F 93% 30.01 in 7.0 mi SSE 9.2 mph - N/A   Clear
5:53 AM 64.0 °F 62.1 °F 93% 30.00 in 7.0 mi SSE 12.7 mph - N/A   Clear
6:53 AM 64.9 °F 62.1 °F 90% 30.00 in 7.0 mi South 13.8 mph - N/A   Clear
7:53 AM 64.9 °F 62.1 °F 90% 29.98 in 6.0 mi South 17.3 mph 21.9 mph N/A   Partly Cloudy
9:53 AM 70.0 °F 64.0 °F 81% 29.98 in 9.0 mi South 20.7 mph 26.5 mph N/A   Partly Cloudy
10:53 AM 73.0 °F 64.0 °F 73% 29.94 in 10.0 mi South 25.3 mph 31.1 mph N/A   Scattered Clouds
11:53 AM 75.9 °F 64.0 °F 67% 29.92 in 10.0 mi South 21.9 mph 33.4 mph N/A   Partly Cloudy
12:53 PM 72.0 °F 62.1 °F 71% 29.90 in 10.0 mi South 20.7 mph 29.9 mph N/A   Scattered Clouds
1:53 PM 73.9 °F 64.0 °F 71% 29.85 in 10.0 mi South 25.3 mph 35.7 mph N/A   Mostly Cloudy
2:53 PM 71.6 °F 64.4 °F 78% 29.86 in 6.0 mi South 16.1 mph - N/A Rain , Thunderstorm Light Thunderstorms and Rain
3:29 PM 71.6 °F 66.2 °F 83% 29.85 in 6.0 mi South 13.8 mph 23.0 mph 0.03 in Rain Light Rain
3:53 PM 71.1 °F 66.0 °F 84% 29.82 in 10.0 mi South 13.8 mph 19.6 mph 0.03 in   Overcast
4:41 PM 71.6 °F 66.2 °F 83% 29.80 in 10.0 mi South 19.6 mph 29.9 mph N/A   Mostly Cloudy
4:53 PM 72.0 °F 66.0 °F 81% 29.76 in 9.0 mi South 19.6 mph 32.2 mph 0.00 in Rain Light Rain
5:53 PM 71.1 °F 66.0 °F 84% 29.75 in 10.0 mi SSE 20.7 mph 31.1 mph 0.01 in   Partly Cloudy
6:53 PM 71.6 °F 64.4 °F 78% 29.76 in 10.0 mi SSE 17.3 mph 25.3 mph N/A Rain Light Rain
7:16 PM 71.6 °F 64.4 °F 78% 29.76 in 10.0 mi SSE 15.0 mph 23.0 mph N/A Thunderstorm Thunderstorm
7:35 PM 69.8 °F 66.2 °F 88% 29.79 in 1.8 mi SSW 15.0 mph 25.3 mph 0.19 in Rain , Thunderstorm Heavy Thunderstorms and Rain
7:41 PM 68.0 °F 66.2 °F 94% 29.79 in 1.8 mi SW 15.0 mph - 0.38 in Rain , Thunderstorm Heavy Thunderstorms and Rain
7:48 PM 66.2 °F 64.4 °F 94% 29.80 in 2.0 mi SW 17.3 mph 26.5 mph 0.40 in Rain , Thunderstorm Light Thunderstorms and Rain
7:53 PM 66.0 °F 63.0 °F 90% 29.80 in 5.0 mi SSW 21.9 mph 28.8 mph 0.41 in Rain , Thunderstorm Thunderstorms and Rain
8:26 PM 64.4 °F 62.6 °F 94% 29.83 in 3.0 mi SSW 15.0 mph 25.3 mph 0.13 in Rain , Thunderstorm Thunderstorms and Rain
8:46 PM 62.6 °F 62.6 °F 100% 29.81 in 3.0 mi SW 10.4 mph - N/A Rain , Thunderstorm Thunderstorms and Rain
8:53 PM 63.0 °F 62.1 °F 97% 29.78 in 2.5 mi SSW 8.1 mph - 0.33 in Rain , Thunderstorm Heavy Thunderstorms and Rain
9:11 PM 62.6 °F 62.6 °F 100% 29.80 in 2.0 mi South 13.8 mph 19.6 mph N/A Rain , Thunderstorm Heavy Rain
9:18 PM 64.4 °F 62.6 °F 94% 29.78 in 2.5 mi South 12.7 mph 23.0 mph N/A Rain Heavy Rain
9:27 PM 64.4 °F 62.6 °F 94% 29.78 in 6.0 mi South 12.7 mph - 0.24 in Rain Light Rain
9:53 PM 64.0 °F 63.0 °F 96% 29.75 in 10.0 mi SSE 8.1 mph - 0.26 in Rain Light Rain
10:18 PM 64.4 °F 62.6 °F 94% 29.80 in 2.0 mi SW 13.8 mph - 0.19 in Rain Light Rain
10:22 PM 64.4 °F 62.6 °F 94% 29.79 in 1.0 mi SSW 9.2 mph - 0.24 in Rain Heavy Rain
10:30 PM 64.4 °F 62.6 °F 94% 29.77 in 2.0 mi South 6.9 mph - N/A Rain Heavy Rain
10:39 PM 64.4 °F 62.6 °F 94% 29.76 in 6.0 mi South 9.2 mph - 0.31 in Rain Light Rain
10:53 PM 63.0 °F 62.1 °F 97% 29.73 in 9.0 mi South 12.7 mph - 0.32 in Rain Light Rain
11:30 PM 64.4 °F 60.8 °F 88% 29.70 in 10.0 mi SE 12.7 mph - 0.02 in   Mostly Cloudy
11:53 PM 64.4 °F 62.6 °F 94% 29.72 in 10.0 mi SSE 12.7 mph - N/A   Mostly Cloudy